Accueil
METAR-TAF:

METAR-TAF

Aéroports :

Turin, Italie

Bric della Croce

latitude: 45-02N, longitude: 007-44E, altitude: 709 m

Observation

Le bulletin a été fait il y a 58 minutes, à 07:55 UTC
Vent calme
Température 17°C
Humidité 72%
Pression 1019 hPa
Visibilité 10 km ou plus
pas de nuages en-dessous de 1500 mètres et pas de cumulonimbus.

METAR: LIMK 230755Z 00000KT CAVOK 17/12 Q1019 RMK SCT SCT200 VAL NIL VIS MIN 9999

Heure: 10:53 (08:53 UTC)


TAF: absent

Observations et prévisions météorologiques de plus de 4000 aéroports (messages METAR et TAF).

Les stations disponibles sont représentées par des disques jaunes et rouges sur la carte.

Passer la souris dessus pour voir le nom de la station.

Cliquer dessus pour voir les observations et prévisions météorologiques.

Pour changer de carte: cliquez sur les boutons verts avec une croix noire pour zoomer, sur le bouton vert avec un tiret pour effectuer un zoom arrière, ou sur les flèches vertes pour les cartes adjacentes.


METAR-TAF: